sat.trackr.live / text

‹ back to catalog

QIANFAN-60

NORAD 62790 · 2025-016F

PAYLOAD ACTIVE UNKNOWN

§ Identity

Operator
Country
PRC
Launch date
2025-01-23
Launch site
TAISC
Launch vehicle
Mass (kg)
RCS (m²)

External: N2YO · Heavens-Above · Gunter

§ Orbital elements

Epoch: 2026-09-22T21:14:41.161632Z

Period
106.59 min
Inclination
88.9653°
Eccentricity
0.0014196
Mean motion
13.51028316 rev/d
Perigee alt
1,057.9 km
Apogee alt
1,079.0 km
Semi-major
7,446.6 km
B*
6.8254e-5
RAAN
73.5142°
Arg perigee
239.0902°
Mean anomaly
120.8854°
Rev number
8,559

§ Raw data

QIANFAN-601 62790U 25016F   26265.88519863  .00000056  00000+0  68254-4 0  99962 62790  88.9653  73.5142 0014196 239.0902 120.8854 13.51028316 85598

JSON: /api/v1/satellites/62790 · /tle

For live sub-satellite position, see the globe view (requires WebGL).

§ Visibility from observer

Set your observer location to see the next 7 days of passes ≥ 10°. The values pass through the URL so the page stays shareable.

No JS? Fill the form by hand. The geolocation button needs JavaScript.